Regional Weather Roundup
Issued by NWS

Home | Current Version | Previous Version | Graphics & Text | Print | Product List | Glossary On
Versions: 1 2 3 4 5 6 7 8 9 10 11 12 13 14 15 16 17 18 19 20 21 22 23 24 25 26 27 28 29 30 31 32 33 34 35 36 37 38 39 40 41 42 43 44 45 46 47 48 49 50
000
ASUS43 KMKX 012221
RWRWI

WISCONSIN REGIONAL WEATHER ROUNDUP
NATIONAL WEATHER SERVICE MILWAUKEE/SULLIVAN WI
500 PM CDT WED JUL 01 2015

NOTE: "FAIR" INDICATES FEW OR NO CLOUDS BELOW 12,000 FEET WITH NO
SIGNIFICANT WEATHER AND/OR OBSTRUCTIONS TO VISIBILITY.

WIZ001-002-006>008-014>016-023>028-012300-
NORTHWEST WISCONSIN

CITY           SKY/WX    TMP DP  RH WIND       PRES   REMARKS
SUPERIOR ARPT  SUNNY     72  58  61 NE3       29.98F
ASHLAND        SUNNY     70  50  49 NE7       30.01S
HAYWARD        MOSUNNY   73  49  42 NE8       30.00F
SIREN          MOSUNNY   74  48  39 NE6       30.00F
CUMBERLAND     PTSUNNY   70  48  46 NE5       30.00F
RICE LAKE      MOSUNNY   73  48  41 E6        30.01F
CHETEK         MOSUNNY   71  51  49 MISG      30.00S
LADYSMITH      SUNNY     73  49  42 CALM      30.01S
EAU CLAIRE     SUNNY     73  50  44 NE6       29.98F
MENOMONIE      SUNNY     72  49  44 NE6       30.00S
NEW RICHMOND   SUNNY     72  50  45 E5        30.00F
OSCEOLA        MOSUNNY   74  51  44 NE6       30.01F
$$

WIZ003>005-009-010-017-018-012300-
NORTH CENTRAL WISCONSIN

CITY           SKY/WX    TMP DP  RH WIND       PRES   REMARKS
MANITOWISH WTR SUNNY     68  45  43 NE6       30.01S
ARBOR VITAE    SUNNY     69  43  38 N5        30.01S
WOODRUFF       SUNNY     69  43  38 N5        30.01S
RHINELANDER    SUNNY     69  43  38 CALM      30.01F
EAGLE RIVER    SUNNY     68  39  34 N9        30.00F
LAND O LAKES   SUNNY     67  43  41 N6        30.02S
PHILLIPS       SUNNY     71  44  39 N5        29.99F
TOMAHAWK       SUNNY     69  42  37 N3        30.00F
MEDFORD        SUNNY     71  46  41 NE5       30.00S
MERRILL        SUNNY     70  45  40 CALM      30.00S
$$

WIZ029-030-035-036-043>047-012300-
CENTRAL WISCONSIN

CITY           SKY/WX    TMP DP  RH WIND       PRES   REMARKS
WAUSAU         MOSUNNY   72  43  35 VRB5      29.97S
MOSINEE        SUNNY     72  45  37 N5        29.99S
MARSHFIELD     SUNNY     72  44  36 CALM      29.98F
STEVENS POINT  MOSUNNY   70  44  38 N6        29.98S
WAUPACA        MOSUNNY   73  43  33 N3        29.98S
WAUTOMA        MOSUNNY   70  45  40 N5        29.98S
WISC RAPIDS    MOSUNNY   72  45  37 N3        29.99F
CAMP DOUGLAS   PTSUNNY   72  50  46 CALM      29.98S
$$

WIZ011>013-019>022-031-037>040-048>050-012300-
NORTHEAST WISCONSIN

CITY           SKY/WX    TMP DP  RH WIND       PRES   REMARKS
ANTIGO         SUNNY     69  45  42 N5        29.99F
SHAWANO        MOSUNNY   73  43  35 N3        29.97F
OCONTO         MOSUNNY   67  53  59 SE8       29.97S
STURGEON BAY   MOSUNNY   63  52  67 CALM      30.00S
GREEN BAY      PTSUNNY   69  53  56 N7        29.97F
MANITOWOC      CLOUDY    62  55  77 MISG      29.98F
APPLETON       MOSUNNY   68  48  49 NE8       29.98F
CLINTONVILLE   MOSUNNY   70  41  35 N3        29.97F
OSHKOSH        PTSUNNY   67  53  61 NE12      29.97F
$$

WIZ032>034-041-042-053>061-012300-
SOUTHWEST WISCONSIN

CITY           SKY/WX    TMP DP  RH WIND       PRES   REMARKS
LA CROSSE      PTSUNNY   70  49  47 S5        29.98F
SPARTA         MOSUNNY   73  41  32 E5        29.98F
VIROQUA        PTSUNNY   68  48  48 E5        30.00F
BOSCOBEL       CLOUDY    69  51  52 VRB3      29.98S
PRAIRIE DU CHI CLOUDY    65  51  58 NE3       29.97F
PLATTEVILLE    CLOUDY    66  49  54 N9        29.97S
$$

WIZ056-057-062-063-064-067-068-012300-
SOUTH CENTRAL WISCONSIN

CITY           SKY/WX    TMP DP  RH WIND       PRES   REMARKS
REEDSBURG      PTSUNNY   67  50  55 W5        29.97F
BARABOO/DELLS  PTSUNNY   69  46  44 W7        29.97F
LONE ROCK      CLOUDY    69  50  50 N5        29.98S
MINERAL POINT  CLOUDY    68  45  42 NE6       29.98S
MADISON        CLOUDY    67  50  54 N7        29.97R
MIDDLETON      CLOUDY    69  46  44 N6        29.98S
WATERTOWN      PTSUNNY   66  54  64 CALM      29.96S
MONROE         CLOUDY    64  52  63 N8        29.96F
JANESVILLE     SUNNY     70  50  49 N5        29.96R
$$

WIZ051-052-058>065-066-070>072-012300-
SOUTHEAST WISCONSIN

CITY           SKY/WX    TMP DP  RH WIND       PRES   REMARKS
MILWAUKEE      CLOUDY    55  50  83 E7        29.99F
WAUKESHA       MOSUNNY   61  52  72 E8        29.99R
MILWAUKEE/TIMM CLOUDY    55  48  76 E6        30.00S
RACINE         PTSUNNY   55  49  80 NE10      30.01S
BURLINGTON     PTSUNNY   63  52  68 E8        29.97S
KENOSHA        PTSUNNY   58  51  78 E10       29.99S
FOND DU LAC    MOSUNNY   67  53  61 NE10      29.97F
SHEBOYGAN      PTSUNNY   60  53  77 NE9       29.99F
WEST BEND      MOSUNNY   61  52  72 E7        29.99R
JUNEAU         PTSUNNY   66  53  62 N7        29.98S
$$

LSZ147-162-012300-
LAKE SUPERIOR

STATION/POSITION TIME  TEMP    WIND        PRES    WAVE
                       AIR SEA DIR/SP/G            HT/PER
                 (UTC) (F)     (DEG/KT/KT) (MB)    (FT/S)
W MID LAKE BUOY  2150   47 39  160/  2/  2 1017.3S   0
DEVILS ISLAND    2200   64     120/  5/  9 1016.3F
SAXON HARBOR     2100   63        CALM     1016.6
$$

LMZ867-665-643>646-012300-
LAKE MICHIGAN

STATION/POSITION TIME  TEMP    WIND        PRES    WAVE
                       AIR SEA DIR/SP/G            HT/PER
                 (UTC) (F)     (DEG/KT/KT) (MB)    (FT/S)
CHAMBERS ISLAND  2100   62      20/  8/ 10 1015.6S
N MID LAKE BUOY  2150   54 45  230/  4/  4 1015.5F   1/ 4
NORTHPORT PIER   2100   61     350/ 11/ 13 1015.2F
SISTER BAY       2114   67      30/ 13/ 19   N/A
ALGOMA LAKESHORE 2140          190/  7/  8   N/A
KEWAUNEE LAKESHO 2200   56     130/  5/  8 1014.9F
SHEBOYGAN LAKESH 2200   54      60/  5/  6 1015.9F
PORT WASHINGTON  2100   56      60/  7/  9 1016.6S
ATWATER BUOY     2200   54      60/  8/ 10 1017.0F
MILWAUKEE LAKESH 2200   53      60/  7/  9   N/A
KENOSHA   LAKESH 2200   53      50/ 10/ 12 1015.6S
$$

TC  - TEMPERATURE IN CELSIUS
VSB - VISIBILITY IN STATUTE MILES
WCI - WIND CHILL INDEX
HX  - HEAT INDEX




USA.gov is the U.S. government's official web portal to all federal, state and local government web resources and services.